Regional Weather Roundup
Issued by NWS

Home | Current Version | Previous Version | Text Only | Print | Product List | Glossary On
Versions: 1 2 3 4 5 6 7 8 9 10 11 12 13 14 15 16 17 18 19 20 21 22 23 24 25 26 27
000
ASUS46 KSEW 250110
RWRWA

WASHINGTON REGIONAL WEATHER ROUNDUP
NATIONAL WEATHER SERVICE SEATTLE WA
600 PM PDT SAT JUN 24 2017

NOTE:"FAIR" INDICATES FEW OR NO CLOUDS BELOW 12,000 FEET WITH NO
SIGNIFICANT WEATHER AND/OR OBSTRUCTIONS TO VISIBILITY.

WAZ507-509-555>559-250200-
SEATTLE, TACOMA, EVERETT, AND VICINITY

CITY           SKY/WX    TMP DP  RH WIND       PRES   REMARKS
EVERETT        SUNNY     82  55  39 W8        30.05F
BOEING FIELD   SUNNY     84  57  39 NW8       30.00F
RENTON         SUNNY     87  56  34 NW14      29.99F
SEATAC AIRPORT MOSUNNY   89  53  29 N10       30.02F
JBLM-MCCHORD   SUNNY     87  56  34 NE13      30.01F
PUYALLUP       FAIR      88  54  31 VRB3      30.02F
BREMERTON      SUNNY     87  55  33 NE10      30.02F
JBLM-FT LEWIS  SUNNY     89  58  35 N8        30.00F
TACOMA NARROWS SUNNY     83  50  31 N10       30.01F
$$

WAZ001-503-506-510-514-515-250200-
NORTH INTERIOR

CITY           SKY/WX    TMP DP  RH WIND       PRES   REMARKS
BELLINGHAM     SUNNY     82  58  43 W7        30.03F
FRIDAY HARBOR  SUNNY     82  45  27 N7        30.05F
EASTSOUND      SUNNY     73  52  46 N5        30.05F
PORT ANGELES   SUNNY     81  46  29 E7        30.06F
EDIZ HOOK      FAIR      73  48  40 CALM      30.05F
PORT TOWNSEND  FAIR      82  50  32 NW8       30.04F
NAS WHIDBEY    MOSUNNY   71  48  43 W6        30.07F
ARLINGTON      SUNNY     86  59  39 W10       30.01F
BURLINGTON     SUNNY     79  55  44 W10       30.02F
$$

WAZ020-022-039-040-504-511-512-250200-
SOUTHWEST INTERIOR

CITY           SKY/WX    TMP DP  RH WIND       PRES   REMARKS
SHELTON        NOT AVBL
OLYMPIA        SUNNY     90  49  24 NE12      30.00F
CHEHALIS       FAIR      91  57  31 VRB5G13   29.98F HX  90
KELSO          SUNNY     95  58  28 N8        29.94F HX  94
VANCOUVER      SUNNY     97  41  14 E12       29.91F HX  92
SCAPPOOSE, OR  SUNNY     95  51  22 NE6       29.92F HX  92
PORTLAND, OR   SUNNY     97  37  12 E18       29.91F HX  92
$$

WAZ021-516-517-250200-
WASHINGTON COAST

CITY           SKY/WX    TMP DP  RH WIND       PRES   REMARKS
FORKS          SUNNY     91  41  17 NE7       30.00F
HOQUIAM        SUNNY     88  53  30 W9        29.97F
ASTORIA, OR    SUNNY     81  58  45 NW10      29.92F
$$

WAZ019-023-024-040-567>569-250200-
CASCADE MOUNTAINS AND COLUMBIA GORGE

CITY           SKY/WX    TMP DP  RH WIND       PRES   REMARKS
STAMPEDE PASS  SUNNY     79  41  25 VRB3      30.24F
TROUTDALE, OR  SUNNY     97  42  15 E12       29.91F HX  93
HOOD RIVER, OR CLEAR     91  39  16 SE5       30.01F
THE DALLES, OR SUNNY     97  40  14 SE8       29.98F HX  92
$$

WAZ026-027-041>044-520-521-250200-
EAST SLOPES

CITY           SKY/WX    TMP DP  RH WIND       PRES   REMARKS
OMAK           SUNNY     90  32  12 S6        30.09F
WENATCHEE      SUNNY     91  32  12 E5        30.08F
ELLENSBURG     SUNNY     92  36  14 SE8       30.11F
YAKIMA         SUNNY     94  35  12 E7        30.07F
SUNNYSIDE ARPT CLEAR     87  46  24 N9        30.05F
YAKIMA TC      FAIR      90  33  13 E10       30.07F
$$

WAZ028-034-035-250200-
COLUMBIA BASIN

CITY           SKY/WX    TMP DP  RH WIND       PRES   REMARKS
EPHRATA        SUNNY     92  27   9 VRB6      30.08F
MOSES LAKE     SUNNY     93  30  10 N8        30.08F
PASCO          SUNNY     92  47  21 N7        30.03F
RICHLAND ARPT  CLEAR     95  38  13 NW5       30.03F HX  91
HERMISTON, OR  SUNNY     95  36  12 NE10      30.03F HX  90
$$

WAZ036>038-250200-
NORTHEAST WASHINGTON

CITY           SKY/WX    TMP DP  RH WIND       PRES   REMARKS
SPOKANE GEIGER MOSUNNY   85  32  15 NW6       30.16F
SPOKANE FELTS  FAIR      87  37  17 CALM      30.14F
FAIRCHILD AFB  SUNNY     83  34  17 N7        30.17F
COEURDALENE,ID FAIR      84  36  18 VRB3      30.16F
DEER PARK      SUNNY     84  31  14 W3        30.16F
$$

WAZ029>033-250200-
SOUTHEAST WASHINGTON

CITY           SKY/WX    TMP DP  RH WIND       PRES   REMARKS
PULLMAN        FAIR      82  41  23 CALM      30.18F
LEWISTON, ID   SUNNY     90  30  11 N3        30.09F
WALLA WALLA    SUNNY     93  37  14 N12       30.06F
PENDLETON, OR  SUNNY     89  38  16 N14       30.07F
$$




USA.gov is the U.S. government's official web portal to all federal, state and local government web resources and services.